STARLINK-3054, 49167

Orbit data source: Space-Track

STARLINK-3054, 49167 is a payload satellite owned by SpaceX/Seattle (US) in LEO that was launched on Tue, 14 Sep 2021 UTC via an FALCON 9 launch vehicle from the Air Force Western Test Range (AFWTR). Payload-class satellites include a variety of spacecraft equipped with specific instruments for various scientific and technological missions. These include communications satellites like Starlink; space stations such as the ISS; scientific satellites like the Hubble; Earth observation satellites from companies like Planet Labs, Umbra, and HawkEye 360; GPS; miniature CubeSats for education and research; and military/defense satellites.

Loading next visibility...
Identifier
49167, 2021-082AP
Orbit
LEO
Country
Flag of USUS
Related business
Manufacturer
SpaceX/Seattle
Mission
Operational Commercial Communications
Bus & Motor
STARLINK, Unknown motor
Mass
297 kg wet, ~275 kg dry
Launch date (UTC)
2021-09-14 (5 years ago)
Launch vehicle
FALCON 9
Launch site
Air Force Western Test Range (AFWTR)
Object type
Payload
Rocket body
Debris
Shape & HBR
Box + 1 Pan, 10.1 m
Radar Cross Section
13.562 m², Large (>1 m²)

Expand to show TLE details & history
Last TLE update: 13 hours ago

TLE from 13 hours ago
0 STARLINK-3054
1 49167U 21082AP  26125.40986322 -.00000159  00000-0 -54879-5 0  9995
2 49167  69.9991 151.4383 0003524 270.0806  89.9949 14.98329121255677
Epoch: 2026-05-05T09:50Z
TLE epoch observation values (Epoch: 2026-05-05T09:50:12.182Z)
Latitude
-0.00003°
Longitude
140.60242°
Altitude
574.483 km
Speed
7.574 km/s
True Right ascension
10h 05m 45s
True Declination
0° 00' 00"
Sunlit
Object was in daylight at epoch
Visualization orbit readout
Latitude
Unknown
Longitude
Unknown
Altitude
Unknown
Speed
Unknown
Apparent Right ascension
Unknown
Apparent Declination
Unknown
Sunlit
N/A
Visualization observer readout
Local Sidereal Time
07:13:44
Azimuth
Unknown
Elevation
Unknown
Doppler factor
Unknown
Orbital elements
Apogee altitude
572.455 km
Perigee altitude
567.558 km
Semi-major axis
6,948.144 km
Eccentricity
0.00035
Inclination
69.9991°
RAAN
151.4383°
Arg. of periapsis
270.0806°
True anomaly
90.03528°
Mean anomaly
89.9949°
Eccentric anomaly
90.01509°
Mean motion
3.74749 °/min
Orbital period
96.06 mins
BSTAR
-0.0000054879
Loading maneuver chart data...
Computing Atmospheric mass density...
Loading historical data...
Loading historical data...
Loading historical data...
Loading historical data...
Loading historical data...
Loading historical data...
Loading historical data...

Documentation

Showing up to 5 results
|